Regional Weather Roundup
Issued by NWS

Home | Current Version | Previous Version | Text Only | Print | Product List | Glossary Off
Versions: 1 2 3 4 5 6 7 8 9 10 11 12 13 14 15 16 17 18 19 20 21 22 23 24 25 26 27 28 29 30 31 32 33 34 35 36 37 38 39 40 41 42 43 44 45 46 47 48 49 50

000
ASUS45 KSLC 270610
RWRUT

UTAH REGIONAL WEATHER ROUNDUP
NATIONAL WEATHER SERVICE SALT LAKE CITY UT
1200 AM MDT MON APR 27 2015

UTZ001>011-023>025-270700-

NORTHERN UTAH

CITY           SKY/WX    TMP DP  RH WIND       PRES   REMARKS
BRIGHAM CITY   PTCLDY    45  38  79 CALM      30.16R
HILL AFB       PTCLDY    45  34  66 E2        30.15R
LOGAN          CLEAR     41  36  82 CALM      30.15R
OGDEN          PTCLDY    46  33  60 W3        30.14R
PROVO AIRPORT  CLOUDY    48  34  57 NW8       30.12S
SALT LAKE CITY CLOUDY    49  38  65 N3        30.13S
VERNAL         CLOUDY    50  35  56 CALM      30.03R
WENDOVER       CLEAR     48  16  27 NW17G29   30.18R
HEBER CITY     CLOUDY    43  32  65 NE7       30.14S
WEST JORDAN    CLOUDY    46  37  71 W6        30.14S

$$

UTZ012>022-026-027-270700-

SOUTHERN/CENTRAL UTAH

CITY           SKY/WX    TMP DP  RH WIND       PRES   REMARKS
BLANDING       MOCLDY    47  33  56 NW15G23   29.98S
BRYCE CANYON   PTCLDY    33  26  75 N15       30.11R WCI  23
CEDAR CITY     PTCLDY    41  29  62 N10       30.10S
DELTA          PTCLDY    39  32  77 N6        30.14R WCI  35
HANKSVILLE     CLOUDY    50  30  46 NW6       30.01R
MILFORD        CLEAR     39  30  70 N12       30.12R WCI  32
MOAB/CYNLANDS  CLOUDY    50  43  77 W8        29.95R
PRICE          CLOUDY    45  28  51 NW18G24   30.04R
ST GEORGE      MOCLDY    59  25  27 NE23G33   30.01S
KANAB          CLEAR     46  28  49 NW15      30.05F

$$

REGIONAL REPORTS     COLORADO/ARIZONA

CITY           SKY/WX    TMP DP  RH WIND       PRES   REMARKS
CRAIG, CO      CLOUDY    41  38  89 CALM      30.04R
GRAND JUNCTION CLOUDY    47  42  83 VRB3      29.96R
RIFLE          CLOUDY    43  40  89 NE3       29.99R
MONTROSE       CLOUDY    44  42  93 CALM      29.99R
CORTEZ         PTCLDY    45  38  76 NW5       29.91R
PAGE, AZ       CLEAR     52  28  39 W7        29.97R
GRAND CANYON   CLEAR     35  27  72 N5        30.03S WCI  31
KINGMAN        CLEAR     45  29  53 E9        29.98R
FLAGSTAFF      CLEAR     38  27  64 CALM      30.00R

$$

REGIONAL REPORTS    NEVADA/IDAHO/WYOMING

CITY           SKY/WX    TMP DP  RH WIND       PRES   REMARKS
LAS VEGAS, NV  PTCLDY    65  18  16 NW14      29.96R
ELY            CLEAR     33  19  56 CALM      30.21R
ELKO           CLEAR     38  23  55 CALM      30.24R
POCATELLO, ID  LGT RAIN  46  41  82 W7        30.19R
BURLEY         MOCLDY    41  19  41 SW12      30.18R
EVANSTON, WY   CLOUDY    35  31  85 NW7       30.16S WCI  29
ROCK SPRINGS   CLOUDY    37  33  85 NE14      30.12R WCI  28
KEMMERER       LGT SNOW  36  32  87 NW6       30.15R WCI  31

$$



USA.gov is the U.S. government's official web portal to all federal, state and local government web resources and services.